{"data":{"norad_id":65244,"epoch":"2026-05-25T01:53:28.118688Z","epoch_age_seconds":64854,"freshness":"FRESH","line1":"1 65244U 25179K   26145.07879767 -.00005087  00000+0 -34899-3 0  9991","line2":"2 65244  97.4518 187.9104 0001019 192.8280 167.2921 15.05628412 43377","mean_motion":15.05628412,"eccentricity":0.0001019,"inclination_deg":97.4518,"raan_deg":187.9104,"arg_perigee_deg":192.828,"mean_anomaly_deg":167.2921,"bstar":-0.00034899,"rev_number":4337,"period_min":95.641128217498,"perigee_km":548.87143978536,"apogee_km":550.28330797476,"semimajor_km":6927.7143738801,"source":"CELESTRAK","updated_at":"2026-05-25T13:38:20.725738Z"}}